Regional Weather Roundup
Issued by NWS

Home | Current Version | Previous Version | Text Only | Print | Product List | Glossary On
Versions: 1 2 3 4 5 6 7 8 9 10 11 12 13 14 15 16 17 18 19 20 21 22 23 24 25 26 27 28 29 30 31 32 33 34 35 36 37 38 39 40 41 42 43 44 45 46 47 48 49 50
756
ASUS44 KLIX 131610
RWRLA
LOUISIANA WEATHER ROUNDUP
NATIONAL WEATHER SERVICE NEW ORLEANS LA
1000 AM CST SAT FEB 13 2016

NOTE: "FAIR" INDICATES FEW OR NO CLOUDS BELOW 12,000 FEET WITH NO
      SIGNIFICANT WEATHER AND/OR OBSTRUCTIONS TO VISIBILITY.
      SKY/WX - SKY CONDITION AND SIGNIFICANT WEATHER.
      TMP - AIR TEMPERATURE.    DP   - DEWPOINT TEMPERATURE.
      RH  - RELATIVE HUMIDITY.  PRES - PRESSURE.
      HX  - HEAT INDEX.         WCI  - WIND CHILL INDEX.

*  THESE STATIONS ARE NOT NWS OR FAA STATIONS AND ARE NOT UNDER
   NWS QUALITY CONTROL.

LAZ040-048-061>063-065-066-069-131700-
SOUTHEAST LOUISIANA

CITY           SKY/WX    TMP DP  RH WIND       PRES   REMARKS
N.O. AUDUBON     N/A     55 N/A N/A MISG        N/A
N.O. INTL ARPT SUNNY     54  32  43 NE14      30.46R
N.O. LAKEFRONT SUNNY     51  32  48 NE12      30.46R
N.O. DOWNTOWN* NOT AVBL
RESERVE*       FAIR      56  32  41 E12G17    30.46R
SLIDELL        SUNNY     52  31  44 NE12      30.45R
BATON ROUGE    SUNNY     53  31  42 NE10      30.45R
BOOTHVILLE     SUNNY     55  40  56 NE12      30.44R
BELLE CHASSE   SUNNY     54  34  46 NE15      30.45R
BOGALUSA*        N/A     52  29  42 NE10G17   30.49R
GALLIANO*      SUNNY     58  37  46 NE9G18    30.44R
NEW ROADS*     FAIR      52  32  46 NE9       30.46S
GONZALES*      FAIR      55  32  41 E8        30.45R
HAMMOND*       SUNNY     52  28  40 E8        30.46S
HOUMA*         SUNNY     55  34  44 NE15G23   30.44R
PORT FOURCHON* SUNNY     57  39  51 NE15G22   30.43S

$$

LAZ041-044-053-054-131700-
SOUTHWEST LOUISIANA

CITY           SKY/WX    TMP DP  RH WIND       PRES   REMARKS
LAKE CHARLES   SUNNY     57  34  41 E15       30.42S
LAFAYETTE      SUNNY     56  32  40 VRB7      30.44R
PATTERSON      SUNNY     57  34  41 E9        30.45R
SALT POINT       N/A     59  36  42 VRB6      30.42R
NEW IBERIA     SUNNY     57  32  38 E12       30.44R
CHENAULT AIRPK SUNNY     54  37  54 E12G17    30.43S

$$

LAZ027-028-131700-
CENTRAL LOUISIANA

CITY           SKY/WX    TMP DP  RH WIND       PRES   REMARKS
FORT POLK      SUNNY     53  33  46 E8        30.43S
ALEXANDRIA INT SUNNY     51  33  50 E14       30.46S
ALEXANDRIA     SUNNY     52  31  44 NE10G20   30.48R

$$

LAZ001-002-131700-
NORTHWEST LOUISIANA

CITY           SKY/WX    TMP DP  RH WIND       PRES   REMARKS
SHREVEPORT     SUNNY     49  28  44 E16       30.47S
BARKSDALE AFB  SUNNY     47  28  47 E10       30.48S
DTN SHREVEPORT SUNNY     47  27  45 NE12      30.48F

$$

LAZ014-016-131700-
NORTHEAST LOUISIANA

CITY           SKY/WX    TMP DP  RH WIND       PRES   REMARKS
MONROE         SUNNY     43  27  53 E12       30.55R
TALLULAH       SUNNY     45  23  42 NE15      30.52S

$$





USA.gov is the U.S. government's official web portal to all federal, state and local government web resources and services.